Ischgl, Austria 16 day weather forecast

Slopes altitude range 1400 m - 2870m

Number of lifts: 40 Pistes: 215km

In some cases the lift and piste totals shown are for the ski domain (e.g. Three Valleys) rather than individual resort (e.g. Courchevel)

Overview

The 16 day weather forecast is fully updated 4 times every day.

    • Mon 22 APR 2019
    • Mon 22
    • 1C 9C
    • Tue 23 APR 2019
    • Tue 23
    • 2C 9C
    • Wed 24 APR 2019
    • Wed 24
    • 3C 10C
    • Thu 25 APR 2019
    • Thu 25
    • 3C 10C
    • Fri 26 APR 2019
    • Fri 26
    • 0C 7C
    • Sat 27 APR 2019
    • Sat 27
    • -2C 2C
    • Sun 28 APR 2019
    • Sun 28
    • 3C 8C
    • Mon 29 APR 2019
    • Mon 29
    • 5C 11C
    • Tue 30 APR 2019
    • Tue 30
    • -5C -2C
    • Wed 01 MAY 2019
    • Wed 01
    • -7C -3C
    • Thu 02 MAY 2019
    • Thu 02
    • -9C 0C
    • Fri 03 MAY 2019
    • Fri 03
    • -7C 3C
    • Sat 04 MAY 2019
    • Sat 04
    • -1C 6C
    • Sun 05 MAY 2019
    • Sun 05
    • 1C 8C
    • Mon 06 MAY 2019
    • Mon 06
    • 0C 2C
    • Tue 07 MAY 2019
    • Tue 07
    • -5C -3C

Date:

Time Type 0°C level Temp Chill Snow Cloud Speed Gust Dir Press
3:00 1758m -2°C -2_8 0cm 71% 8mph 8mph 1016mB
6:00 2829m -2°C -2_8 0cm 61% 8mph 9mph 1015mB
9:00 3105m 1°C 1_8 0cm 58% 8mph 10mph 1011mB
12:00 3048m 9°C 9_8 0cm 49% 8mph 9mph 1009mB
15:00 3017m 9°C 9_8 0cm 70% 8mph 9mph 1006mB
18:00 2923m 9°C 9_8 0cm 83% 8mph 10mph 1006mB
21:00 2466m 0°C 0_8 0cm 64% 8mph 10mph 1007mB
0:00 2454m 0°C 0_9 0cm 80% 9mph 11mph 1006mB
3:00 1878m -1°C -1_9 0cm 99% 9mph 11mph 1004mB
6:00 2661m -1°C -1_8 0cm 97% 8mph 10mph 1002mB
9:00 2601m 2°C 2_8 0cm 90% 8mph 9mph 1001mB
12:00 2737m 9°C 9_8 0cm 81% 8mph 9mph 1001mB
15:00 2686m 8°C 8_8 0cm 91% 8mph 10mph 1001mB
18:00 2641m 8°C 8_8 0cm 95% 8mph 10mph 1002mB
21:00 2679m 1°C 1_9 0cm 99% 9mph 11mph 1005mB
0:00 2563m 1°C 1_9 0cm 98% 9mph 11mph 1006mB
3:00 2537m 0°C 0_9 0cm 50% 9mph 10mph 1007mB
6:00 2642m 0°C 0_9 0cm 29% 9mph 12mph 1008mB
9:00 2664m 3°C 3_11 0cm 65% 11mph 15mph 1008mB
12:00 2801m 10°C 10_12 0cm 69% 12mph 17mph 1008mB
15:00 3024m 10°C 10_12 0cm 89% 12mph 17mph 1008mB
18:00 2932m 10°C 10_9 0cm 75% 9mph 13mph 1011mB
21:00 2854m 4°C 4_9 0cm 86% 9mph 13mph 1016mB
0:00 2681m 2°C 2_10 0cm 55% 10mph 13mph 1017mB
3:00 2473m 1°C 1_10 0cm 28% 10mph 13mph 1016mB
6:00 2306m 0°C 0_12 0cm 23% 12mph 17mph 1016mB
9:00 2604m 3°C 3_12 0cm 54% 12mph 15mph 1016mB
12:00 2812m 10°C 10_12 0cm 74% 12mph 16mph 1015mB
15:00 2872m 10°C 10_10 0cm 81% 10mph 14mph 1014mB
18:00 2863m 10°C 10_8 0cm 77% 8mph 11mph 1014mB
21:00 2826m 3°C 3_10 0cm 77% 10mph 13mph 1015mB
0:00 2772m 2°C 2_10 0cm 63% 10mph 13mph 1015mB
3:00 2724m 2°C 2_9 0cm 11% 9mph 12mph 1015mB
6:00 2660m 1°C 1_9 0cm 14% 9mph 12mph 1015mB
9:00 2566m 5°C 5_5 0cm 53% 5mph 8mph 1017mB
12:00 2020m 7°C 7_9 4cm 73% 9mph 11mph 1018mB
15:00 1636m 0°C 0_7 5cm 100% 7mph 9mph 1020mB
18:00 1547m 0°C 0_4 3cm 100% 4mph 5mph 1021mB
21:00 1372m -4°C -4_4 1cm 99% 4mph 6mph 1024mB
0:00 1418m -4°C -4_4 1cm 99% 4mph 6mph 1025mB
3:00 1420m -4°C -4_5 1cm 98% 5mph 5mph 1026mB
6:00 1657m -5°C -5_4 1cm 80% 4mph 5mph 1027mB
9:00 1992m -2°C -2_4 0cm 29% 4mph 4mph 1026mB
12:00 2143m 2°C 2_5 0cm 34% 5mph 5mph 1024mB
15:00 2253m 3°C 3_5 0cm 17% 5mph 5mph 1024mB
18:00 2193m 3°C 3_3 0cm 45% 3mph 4mph 1025mB
21:00 1725m -2°C -2_2 0cm 22% 2mph 3mph 1028mB
0:00 1783m -2°C -2_3 0cm 30% 3mph 4mph 1028mB
3:00 2280m -2°C -2_3 0cm 58% 3mph 3mph 1027mB
6:00 2732m -2°C -2_3 0cm 69% 3mph 4mph 1025mB
9:00 2628m 3°C 3_4 0cm 81% 4mph 4mph 1024mB
12:00 2712m 8°C 8_4 0cm 77% 4mph 4mph 1022mB
15:00 2819m 9°C 9_4 0cm 29% 4mph 4mph 1020mB
18:00 2872m 9°C 9_3 0cm 29% 3mph 3mph 1021mB
21:00 2728m 0°C 0_3 0cm 39% 3mph 4mph 1022mB
0:00 2748m 0°C 0_5 0cm 34% 5mph 6mph 1021mB
3:00 2732m 1°C 1_6 0cm 45% 6mph 7mph 1019mB
6:00 2799m 1°C 1_6 0cm 56% 6mph 8mph 1017mB
9:00 2801m 5°C 5_6 0cm 69% 6mph 8mph 1014mB
12:00 3016m 11°C 11_9 0cm 67% 9mph 20mph 1010mB
15:00 3057m 5°C 5_5 0cm 100% 5mph 7mph 1008mB
18:00 2900m 5°C 5_3 0cm 100% 3mph 4mph 1008mB
21:00 2771m 0°C 0_6 1cm 99% 6mph 7mph 1008mB
0:00 2562m 0°C 0_5 2cm 99% 5mph 7mph 1007mB
3:00 2391m -1°C -1_5 4cm 100% 5mph 6mph 1006mB
6:00 2061m -3°C -3_10 5cm 100% 10mph 13mph 1007mB
9:00 1755m -5°C -5_8 4cm 100% 8mph 10mph 1007mB
12:00 2058m -2°C -2_9 3cm 100% 9mph 10mph 1007mB
15:00 2200m -2°C -2_11 1cm 92% 11mph 12mph 1007mB
18:00 1678m -2°C -2_10 1cm 91% 10mph 12mph 1010mB
21:00 1224m -8°C -8_7 1cm 92% 7mph 7mph 1013mB
0:00 1020m -10°C -10_6 1cm 88% 6mph 7mph 1015mB
3:00 881m -10°C -10_5 0cm 65% 5mph 6mph 1015mB
6:00 1407m -11°C -11_5 0cm 64% 5mph 6mph 1015mB
9:00 1854m -7°C -7_6 1cm 69% 6mph 5mph 1013mB
12:00 2008m -3°C -3_7 1cm 84% 7mph 7mph 1011mB
15:00 1997m -3°C -3_8 3cm 100% 8mph 9mph 1010mB
18:00 1814m -3°C -3_7 2cm 99% 7mph 9mph 1012mB
21:00 1457m -7°C -7_3 1cm 75% 3mph 4mph 1015mB
0:00 1177m -9°C -9_2 1cm 72% 2mph 3mph 1014mB
Afternoon 0.473958mm 0.625 2030m 0°C 0_4 5cm 88% 4mph 5mph 1009mB
Morning 0.515625mm 0.625 1115m -7°C -7_6 5cm 52% 6mph 6mph 1014mB
Afternoon 0.0104167mm 0.125 2531m 3°C 3_11 0cm 61% 11mph 13mph 1008mB
Morning 0.03125mm 0.25 2061m -2°C -2_12 0cm 94% 12mph 17mph 1010mB
Afternoon 0.0104167mm 0 2801m 6°C 6_14 0cm 99% 14mph 17mph 1004mB
Morning 0.140625mm 0 3088m 1°C 1_13 0cm 100% 13mph 18mph 1004mB
Afternoon 0.03125mm 0.1875 2987m 8°C 8_14 0cm 87% 14mph 18mph 999mB
Morning 0.963542mm 0.8125 2502m 2°C 2_7 8cm 91% 7mph 11mph 998mB
Afternoon 1.28646mm 0.4375 2376m 2°C 2_9 10cm 100% 9mph 12mph 1001mB
Morning 0.109375mm 0.75 1567m -4°C -4_8 6cm 100% 8mph 11mph 1010mB
Afternoon 0.489583mm 0.125 1679m -3°C -3_10 4cm 100% 10mph 12mph 1014mB
Morning 0.390625mm 0.125 1127m -7°C -7_6 3cm 99% 6mph 9mph 1022mB

16 day outlook at a glance

Forecast issued: 22/04/2019 08:04:19

Chat

Your comments and questions. In a resort? Let us know what it's like!


Characters left 250

For terms and conditions see Readers Comments on the Cookie and privacy policy page.